Litchfield, IL

2:53 AM CDT on May 25, 2017 (GMT -0500)
Litchfield

Weather History for K3LF - January, 2014

Change the Weather History Date:

Tuesday, January 14, 2014

  Actual Average (KALN) Record (KALN)
Temperature  
Mean Temperature 34 °F -  
Max Temperature 41 °F 34 °F 60 °F (2016)
Min Temperature 26 °F 22 °F 5 °F (1997)
Degree Days  
Heating Degree Days 32    
Moisture  
Dew Point 26 °F    
Average Humidity 79    
Maximum Humidity 98    
Minimum Humidity 53    
Precipitation  
Precipitation 0.00 in - - ()
Sea Level Pressure  
Sea Level Pressure 29.88 in    
Wind  
Wind Speed 10 mph (WSW)    
Max Wind Speed 28 mph    
Max Gust Speed 36 mph    
Visibility 10 miles    
Events Rain    
Averages and records for this station are not official NWS values.
T = Trace of Precipitation, MM = Missing Value Source: NWS Daily Summary

Daily Weather History Graph

Daily Weather History Graph

Search for Another Location

Airport or City:

Trip Planner

Search our weather history database for the weather conditions in past years. The results will help you decide how hot, cold, wet, or windy it might be!

Date:

Astronomy

Jan. 14, 2014 Rise Set
Actual Time 7:16 AM CST 4:59 PM CST
Civil Twilight 6:47 AM CST 5:28 PM CST
Nautical Twilight 6:14 AM CST 6:01 PM CST
Astronomical Twilight 5:42 AM CST 6:33 PM CST
Moon 4:04 PM CST (1/14) 5:51 AM CST (1/14)
Length of Visible Light 10h 41m
Length of Day
9h 42m
Waxing Gibbous, 98% of the Moon is Illuminated
Jan 14
Waxing Gibbous
Jan 15
Full
Jan 23
Last Quarter
Jan 30
New
Feb 6
First Quarter

Hourly Weather History & Observations

Time (CST) Temp. Windchill Dew Point Humidity Pressure Visibility Wind Dir Wind Speed Gust Speed Precip Events Conditions
12:15 AM 28.4 °F 23.3 °F 27.9 °F 98% 29.86 in 7.0 mi SW 4.6 mph - N/A   Clear
12:35 AM 27.5 °F - 26.6 °F 96% 29.85 in 10.0 mi Calm Calm - N/A   Clear
12:55 AM 27.9 °F 22.6 °F 27.3 °F 98% 29.83 in 10.0 mi South 4.6 mph - N/A   Clear
1:15 AM 26.6 °F 21.2 °F 25.9 °F 97% 29.83 in 7.0 mi SSE 4.6 mph - N/A   Clear
1:35 AM 27.0 °F 21.6 °F 26.4 °F 98% 29.84 in 7.0 mi SSE 4.6 mph - N/A   Clear
1:55 AM 27.0 °F 23.0 °F 26.4 °F 98% 29.85 in 7.0 mi South 3.5 mph - N/A   Clear
2:15 AM 27.5 °F 22.2 °F 26.8 °F 97% 29.85 in 7.0 mi South 4.6 mph - N/A   Clear
2:35 AM 27.3 °F 22.0 °F 26.8 °F 98% 29.84 in 7.0 mi South 4.6 mph - N/A   Clear
2:55 AM 27.5 °F 21.1 °F 26.8 °F 97% 29.83 in 7.0 mi SSE 5.8 mph - N/A   Clear
3:15 AM 28.0 °F 20.8 °F 27.3 °F 97% 29.82 in 10.0 mi SSE 6.9 mph - N/A   Clear
3:35 AM 29.1 °F 22.1 °F 28.4 °F 97% 29.81 in 10.0 mi SSE 6.9 mph - N/A   Clear
3:55 AM 28.4 °F 21.2 °F 27.5 °F 96% 29.81 in 10.0 mi SSE 6.9 mph - N/A   Clear
4:15 AM 28.0 °F 20.0 °F 27.1 °F 96% 29.80 in 10.0 mi SSE 8.1 mph - N/A   Clear
4:35 AM 29.5 °F 21.8 °F 27.9 °F 94% 29.79 in 10.0 mi SSE 8.1 mph - N/A   Clear
4:55 AM 29.7 °F 22.0 °F 27.9 °F 93% 29.78 in 10.0 mi SSE 8.1 mph - N/A   Clear
5:15 AM 30.0 °F 21.1 °F 28.0 °F 92% 29.77 in 10.0 mi SSE 10.4 mph - N/A   Clear
5:35 AM 30.2 °F 21.3 °F 28.0 °F 92% 29.76 in 10.0 mi SSE 10.4 mph - N/A   Clear
5:55 AM 30.2 °F 22.6 °F 28.4 °F 93% 29.76 in 10.0 mi SSE 8.1 mph - N/A   Clear
6:15 AM 30.6 °F 22.4 °F 28.9 °F 94% 29.75 in 10.0 mi SSE 9.2 mph - N/A   Clear
6:35 AM 31.1 °F 21.9 °F 29.1 °F 92% 29.75 in 10.0 mi SSE 11.5 mph - N/A   Clear
6:55 AM 31.6 °F 23.7 °F 29.1 °F 90% 29.75 in 10.0 mi SSE 9.2 mph - N/A   Clear
7:15 AM 31.6 °F 23.1 °F 28.8 °F 89% 29.75 in 10.0 mi SSE 10.4 mph - N/A   Clear
7:35 AM 31.8 °F 24.6 °F 29.3 °F 90% 29.75 in 10.0 mi South 8.1 mph - N/A   Mostly Cloudy
7:55 AM 32.2 °F 23.8 °F 29.8 °F 91% 29.75 in 10.0 mi South 10.4 mph - N/A   Overcast
8:15 AM 32.2 °F 23.8 °F 29.8 °F 91% 29.76 in 10.0 mi South 10.4 mph - N/A   Overcast
8:35 AM 32.5 °F 24.8 °F 30.2 °F 91% 29.76 in 10.0 mi SSW 9.2 mph - N/A   Overcast
8:55 AM 33.6 °F 24.1 °F 29.8 °F 86% 29.76 in 10.0 mi South 13.8 mph 17.3 mph N/A   Overcast
9:15 AM 33.8 °F 25.8 °F 30.4 °F 87% 29.78 in 10.0 mi SW 10.4 mph - N/A   Mostly Cloudy
9:35 AM 36.0 °F 28.5 °F 29.3 °F 77% 29.78 in 10.0 mi WSW 10.4 mph - N/A   Mostly Cloudy
9:55 AM 36.7 °F 28.4 °F 29.7 °F 76% 29.79 in 10.0 mi WSW 12.7 mph - N/A   Scattered Clouds
10:15 AM 36.7 °F 28.4 °F 30.4 °F 78% 29.80 in 10.0 mi West 12.7 mph 18.4 mph N/A   Mostly Cloudy
10:35 AM 37.6 °F 28.8 °F 31.1 °F 77% 29.81 in 10.0 mi West 15.0 mph - N/A   Mostly Cloudy
10:55 AM 37.2 °F 27.6 °F 31.8 °F 81% 29.82 in 10.0 mi West 17.3 mph - N/A   Overcast
11:15 AM 35.6 °F 27.1 °F 32.9 °F 90% 29.83 in 5.0 mi WNW 12.7 mph - N/A Rain Light Rain
11:35 AM 36.9 °F 29.1 °F 34.5 °F 91% 29.82 in 10.0 mi West 11.5 mph - N/A   Mostly Cloudy
11:55 AM 38.3 °F 29.0 °F 35.6 °F 90% 29.81 in 10.0 mi West 17.3 mph - N/A   Scattered Clouds
12:15 PM 38.5 °F 29.6 °F 35.8 °F 90% 29.81 in 10.0 mi West 16.1 mph - N/A   Scattered Clouds
12:35 PM 40.5 °F 32.1 °F 35.2 °F 82% 29.82 in 10.0 mi West 16.1 mph 26.5 mph N/A   Scattered Clouds
12:55 PM 39.9 °F 29.7 °F 32.0 °F 73% 29.83 in 10.0 mi WNW 23.0 mph 31.1 mph N/A   Mostly Cloudy
1:15 PM 40.6 °F 30.9 °F 32.0 °F 71% 29.83 in 10.0 mi WNW 21.9 mph 27.6 mph N/A   Scattered Clouds
1:35 PM 40.5 °F 31.5 °F 30.2 °F 67% 29.84 in 10.0 mi WNW 18.4 mph 28.8 mph N/A   Clear
1:55 PM 40.6 °F 32.0 °F 28.8 °F 63% 29.85 in 10.0 mi WNW 17.3 mph 27.6 mph N/A   Clear
2:15 PM 41.4 °F 31.4 °F 30.0 °F 64% 29.87 in 10.0 mi West 24.2 mph - N/A   Clear
2:35 PM 40.5 °F 29.7 °F 24.6 °F 53% 29.88 in 10.0 mi WNW 26.5 mph 31.1 mph N/A   Clear
2:55 PM 39.6 °F 30.3 °F 26.2 °F 59% 29.90 in 10.0 mi WNW 18.4 mph 26.5 mph N/A   Clear
3:15 PM 39.2 °F 30.8 °F 26.4 °F 60% 29.91 in 10.0 mi NW 15.0 mph 24.2 mph N/A   Clear
3:35 PM 38.8 °F 30.0 °F 26.1 °F 60% 29.92 in 10.0 mi WNW 16.1 mph 25.3 mph N/A   Clear
3:55 PM 38.3 °F 28.4 °F 25.9 °F 61% 29.93 in 10.0 mi WNW 19.6 mph 26.5 mph N/A   Scattered Clouds
4:15 PM 36.9 °F 27.1 °F 27.1 °F 68% 29.94 in 10.0 mi NW 17.3 mph 20.7 mph N/A   Scattered Clouds
4:35 PM 34.9 °F 25.3 °F 26.6 °F 72% 29.96 in 10.0 mi NW 15.0 mph - N/A   Scattered Clouds
4:55 PM 32.4 °F 22.5 °F 26.2 °F 78% 29.97 in 10.0 mi NW 13.8 mph - N/A   Clear
5:15 PM 32.0 °F 24.2 °F 25.7 °F 78% 29.97 in 10.0 mi NW 9.2 mph - N/A   Clear
5:35 PM 31.8 °F 26.2 °F 25.7 °F 78% 29.97 in 10.0 mi NW 5.8 mph - N/A   Scattered Clouds
5:55 PM 31.8 °F 27.3 °F 27.1 °F 83% 29.98 in 10.0 mi WSW 4.6 mph - N/A   Mostly Cloudy
6:15 PM 32.0 °F 25.6 °F 26.6 °F 80% 29.99 in 10.0 mi West 6.9 mph - N/A   Overcast
6:35 PM 33.1 °F 20.1 °F 22.5 °F 65% 30.01 in 10.0 mi WNW 25.3 mph 34.5 mph N/A   Overcast
6:55 PM 32.0 °F 19.5 °F 22.5 °F 68% 30.03 in 10.0 mi NW 21.9 mph 27.6 mph N/A   Mostly Cloudy
7:15 PM 30.4 °F 18.0 °F 20.1 °F 66% 30.04 in 10.0 mi WNW 19.6 mph 27.6 mph N/A   Scattered Clouds
7:35 PM 29.8 °F 18.9 °F 19.6 °F 66% 30.04 in 10.0 mi WNW 15.0 mph 26.5 mph N/A   Scattered Clouds
7:55 PM 29.3 °F 16.6 °F 19.4 °F 67% 30.04 in 10.0 mi WNW 19.6 mph 29.9 mph N/A   Scattered Clouds
8:15 PM 29.1 °F 14.2 °F 15.6 °F 57% 30.05 in 10.0 mi WNW 27.6 mph 35.7 mph N/A   Scattered Clouds
8:35 PM 28.4 °F 16.2 °F 16.2 °F 60% 30.04 in 10.0 mi WNW 17.3 mph - N/A   Clear
8:55 PM 28.2 °F 16.8 °F 15.8 °F 60% 30.04 in 10.0 mi WNW 15.0 mph 24.2 mph N/A   Clear
9:15 PM 28.0 °F 16.1 °F 16.2 °F 61% 30.05 in 10.0 mi West 16.1 mph - N/A   Scattered Clouds
9:35 PM 28.2 °F 15.9 °F 16.3 °F 61% 30.04 in 10.0 mi West 17.3 mph 23.0 mph N/A   Mostly Cloudy
9:55 PM 28.4 °F 16.2 °F 17.4 °F 63% 30.04 in 10.0 mi West 17.3 mph - N/A   Overcast
10:15 PM 28.4 °F 17.0 °F 17.1 °F 63% 30.04 in 10.0 mi WNW 15.0 mph 19.6 mph N/A   Overcast
10:35 PM 28.4 °F 16.2 °F 16.7 °F 62% 30.04 in 10.0 mi WNW 17.3 mph 24.2 mph N/A   Overcast
10:55 PM 28.4 °F 16.2 °F 18.3 °F 66% 30.03 in 10.0 mi WNW 17.3 mph - N/A   Overcast
11:15 PM 28.0 °F 14.9 °F 16.3 °F 62% 30.04 in 10.0 mi WNW 19.6 mph 25.3 mph N/A   Overcast
11:35 PM 27.5 °F 16.3 °F 17.2 °F 65% 30.04 in 10.0 mi WNW 13.8 mph 23.0 mph N/A   Overcast
11:55 PM 27.5 °F 14.6 °F 17.6 °F 66% 30.04 in 10.0 mi NW 18.4 mph 24.2 mph N/A   Overcast